Fryeburg, ME

9:05 AM EDT on April 29, 2017 (GMT -0400)
Eastern Slopes Regional

Weather History for KIZG - April, 2014

Change the Weather History Date:

Saturday, April 19, 2014

  Actual Average Record
Temperature  
Mean Temperature 42 °F -  
Max Temperature 55 °F 56 °F 89 °F (2004)
Min Temperature 28 °F 28 °F 19 °F (2001)
Degree Days  
Heating Degree Days 24    
Moisture  
Dew Point 27 °F    
Average Humidity 61    
Maximum Humidity 92    
Minimum Humidity 35    
Precipitation  
Precipitation 0.00 in - - ()
Sea Level Pressure  
Sea Level Pressure 30.24 in    
Wind  
Wind Speed 4 mph (WNW)    
Max Wind Speed 15 mph    
Max Gust Speed 36 mph    
Visibility 10 miles    
Events      
Averages and records for this station are not official NWS values.
T = Trace of Precipitation, MM = Missing Value Source: NWS Daily Summary

Daily Weather History Graph

Daily Weather History Graph

Search for Another Location

Airport or City:

Trip Planner

Search our weather history database for the weather conditions in past years. The results will help you decide how hot, cold, wet, or windy it might be!

Date:

Astronomy

Apr. 19, 2014 Rise Set
Actual Time 5:53 AM EDT 7:32 PM EDT
Civil Twilight 5:23 AM EDT 8:03 PM EDT
Nautical Twilight 4:46 AM EDT 8:40 PM EDT
Astronomical Twilight 4:07 AM EDT 9:20 PM EDT
Moon No Moon Rise 9:04 AM EDT (4/19)
Length of Visible Light 14h 39m
Length of Day
13h 38m
Waning Gibbous, 79% of the Moon is Illuminated
Apr 19
Waning Gibbous
Apr 22
Last Quarter
Apr 29
New
May 6
First Quarter
May 14
Full

Hourly Weather History & Observations

Time (EDT) Temp. Windchill Dew Point Humidity Pressure Visibility Wind Dir Wind Speed Gust Speed Precip Events Conditions
12:54 AM 28.0 °F - 26.1 °F 92% 30.22 in 10.0 mi Calm Calm - N/A   Scattered Clouds
1:54 AM 30.9 °F - 27.0 °F 85% 30.18 in 10.0 mi Calm Calm - N/A   Clear
2:54 AM 28.0 °F 24.2 °F 25.0 °F 88% 30.16 in 10.0 mi WNW 3.5 mph - N/A   Scattered Clouds
3:54 AM 30.0 °F - 27.0 °F 88% 30.16 in 10.0 mi Calm Calm - N/A   Overcast
4:54 AM 30.0 °F - 28.0 °F 92% 30.14 in 10.0 mi Calm Calm - 0.00 in   Mostly Cloudy
5:54 AM 28.9 °F - 27.0 °F 92% 30.14 in 10.0 mi Calm Calm - N/A   Clear
6:54 AM 30.9 °F - 28.0 °F 89% 30.16 in 10.0 mi Calm Calm - N/A   Mostly Cloudy
7:54 AM 35.1 °F - 30.9 °F 85% 30.17 in 10.0 mi Calm Calm - N/A   Mostly Cloudy
8:54 AM 48.0 °F - 32.0 °F 54% 30.16 in 10.0 mi West 5.8 mph - N/A   Clear
9:54 AM 50.0 °F - 33.1 °F 52% 30.17 in 10.0 mi NNE 9.2 mph - N/A   Partly Cloudy
10:54 AM 53.1 °F - 32.0 °F 45% 30.19 in 10.0 mi North 11.5 mph 16.1 mph N/A   Scattered Clouds
11:54 AM 55.0 °F - 30.0 °F 38% 30.19 in 10.0 mi NNW 5.8 mph - N/A   Mostly Cloudy
12:54 PM 54.0 °F - 30.0 °F 40% 30.21 in 10.0 mi WSW 13.8 mph 20.7 mph N/A   Mostly Cloudy
1:54 PM 48.9 °F - 28.0 °F 44% 30.23 in 10.0 mi WNW 15.0 mph 35.7 mph N/A   Partly Cloudy
2:54 PM 54.0 °F - 28.0 °F 37% 30.23 in 10.0 mi West 9.2 mph 20.7 mph N/A   Partly Cloudy
3:54 PM 54.0 °F - 27.0 °F 35% 30.25 in 10.0 mi West 13.8 mph 21.9 mph N/A   Overcast
4:54 PM 52.0 °F - 26.1 °F 37% 30.27 in 10.0 mi WSW 11.5 mph 19.6 mph N/A   Overcast
5:54 PM 51.1 °F - 24.1 °F 35% 30.29 in 10.0 mi Variable 6.9 mph - N/A   Overcast
6:54 PM 48.0 °F - 21.9 °F 36% 30.31 in 10.0 mi West 5.8 mph - N/A   Overcast
7:54 PM 44.1 °F 40.8 °F 21.0 °F 40% 30.34 in 10.0 mi NW 5.8 mph - N/A   Clear
8:54 PM 39.9 °F 36.7 °F 19.9 °F 45% 30.38 in 10.0 mi WNW 4.6 mph - N/A   Clear
9:54 PM 32.0 °F - 21.9 °F 66% 30.40 in 10.0 mi Calm Calm - N/A   Clear
10:54 PM 33.1 °F 28.7 °F 21.9 °F 64% 30.42 in 10.0 mi SSE 4.6 mph - N/A   Clear
11:54 PM 28.0 °F - 21.0 °F 75% 30.43 in 10.0 mi Calm Calm - N/A   Clear